When you browse on this site, cookies collect data to enhance your experience and personalize the content and advertising you see.
Visit our Privacy Policy to learn more. By continuing to use the site, you agree to this use of cookies and data.
  • In Schweiz
  • Länderverzeichnis
  • Für 7 Tage
  • Wassertemperatur
  • Wetterkarte
  • Widgets
  • user-avatar
    Anmelden

    Stündliche Wetter Podborove

    Heute, 19 August, Montag

    Zeit Temperatur Niederschläge Wind Luftdruck Luftfeuchtigkeit
    00:00 +14°C° 0 mm 1 m/S 751 mmHg 88%
    01:00 +14°C° 0 mm 1 m/S 751 mmHg 90%
    02:00 +13°C° 0 mm 2 m/S 751 mmHg 93%
    03:00 +14°C° 0 mm 2 m/S 751 mmHg 92%
    04:00 +14°C° 0 mm 2 m/S 751 mmHg 90%
    05:00 +14°C° 0 mm 2 m/S 750 mmHg 89%
    06:00 +14°C° 0 mm 3 m/S 750 mmHg 83%
    07:00 +16°C° 0 mm 3 m/S 750 mmHg 78%
    08:00 +18°C° 0 mm 4 m/S 750 mmHg 71%
    09:00 +19°C° 0 mm 4 m/S 750 mmHg 69%
    10:00 +21°C° 0 mm 4 m/S 750 mmHg 67%
    11:00 +23°C° 0 mm 4 m/S 750 mmHg 66%
    12:00 +25°C° 0 mm 4 m/S 750 mmHg 64%
    13:00 +26°C° 0 mm 4 m/S 750 mmHg 63%
    14:00 +27°C° 0 mm 4 m/S 750 mmHg 61%
    15:00 +26°C° 0.6 mm 4 m/S 750 mmHg 70%
    16:00 +25°C° 0.6 mm 3 m/S 750 mmHg 78%
    17:00 +24°C° 0.6 mm 3 m/S 751 mmHg 87%
    18:00 +23°C° 0.2 mm 2 m/S 751 mmHg 90%
    19:00 +21°C° 0.2 mm 2 m/S 751 mmHg 92%
    20:00 +20°C° 0.2 mm 2 m/S 751 mmHg 95%
    21:00 +19°C° 0 mm 2 m/S 752 mmHg 96%
    22:00 +19°C° 0 mm 2 m/S 752 mmHg 96%
    23:00 +18°C° 0 mm 2 m/S 753 mmHg 97%

    Morgen, 20 August, Dienstag

    Zeit Temperatur Niederschläge Wind Luftdruck Luftfeuchtigkeit
    00:00 +18°C° 0 mm 1 m/S 753 mmHg 95%
    01:00 +16°C° 0 mm 1 m/S 754 mmHg 94%
    02:00 +15°C° 0 mm 1 m/S 754 mmHg 92%
    03:00 +15°C° 0 mm 1 m/S 754 mmHg 91%
    04:00 +15°C° 0 mm 1 m/S 755 mmHg 89%
    05:00 +13°C° 0 mm 0 m/S 755 mmHg 88%
    06:00 +14°C° 0 mm 0 m/S 755 mmHg 86%
    07:00 +15°C° 0 mm 0 m/S 755 mmHg 84%
    08:00 +16°C° 0 mm 0 m/S 756 mmHg 82%
    09:00 +18°C° 0 mm 0 m/S 756 mmHg 73%
    10:00 +19°C° 0 mm 0 m/S 756 mmHg 65%
    11:00 +21°C° 0 mm 0 m/S 756 mmHg 57%
    12:00 +24°C° 0 mm 1 m/S 756 mmHg 54%
    13:00 +24°C° 0 mm 1 m/S 757 mmHg 52%
    14:00 +25°C° 0 mm 1 m/S 757 mmHg 50%
    15:00 +25°C° 0 mm 1 m/S 757 mmHg 53%
    16:00 +25°C° 0 mm 1 m/S 757 mmHg 55%
    17:00 +24°C° 0 mm 1 m/S 757 mmHg 58%
    18:00 +22°C° 0 mm 1 m/S 757 mmHg 65%
    19:00 +20°C° 0 mm 1 m/S 757 mmHg 72%
    20:00 +18°C° 0 mm 1 m/S 757 mmHg 79%
    21:00 +18°C° 0 mm 1 m/S 757 mmHg 82%
    22:00 +15°C° 0 mm 0 m/S 758 mmHg 84%
    23:00 +14°C° 0 mm 0 m/S 758 mmHg 87%

    übermorgen, 21 August, Mittwoch

    Zeit Temperatur Niederschläge Wind Luftdruck Luftfeuchtigkeit
    00:00 +14°C° 0 mm 0 m/S 758 mmHg 87%
    01:00 +14°C° 0 mm 0 m/S 758 mmHg 87%
    02:00 +14°C° 0 mm 0 m/S 759 mmHg 87%
    03:00 +13°C° 0 mm 0 m/S 758 mmHg 87%
    04:00 +13°C° 0 mm 0 m/S 758 mmHg 87%
    05:00 +13°C° 0 mm 0 m/S 758 mmHg 88%
    06:00 +16°C° 0 mm 1 m/S 758 mmHg 83%
    07:00 +18°C° 0 mm 1 m/S 758 mmHg 78%
    08:00 +20°C° 0 mm 1 m/S 758 mmHg 74%
    09:00 +21°C° 0 mm 1 m/S 758 mmHg 68%
    10:00 +23°C° 0 mm 1 m/S 758 mmHg 63%
    11:00 +24°C° 0 mm 1 m/S 758 mmHg 58%
    12:00 +23°C° 0 mm 1 m/S 758 mmHg 62%
    13:00 +22°C° 0 mm 1 m/S 758 mmHg 66%
    14:00 +22°C° 0 mm 1 m/S 758 mmHg 70%
    15:00 +21°C° 0 mm 1 m/S 758 mmHg 74%
    16:00 +20°C° 0 mm 1 m/S 757 mmHg 78%
    17:00 +19°C° 0 mm 2 m/S 757 mmHg 82%
    18:00 +18°C° 0 mm 2 m/S 757 mmHg 83%
    19:00 +17°C° 0 mm 2 m/S 757 mmHg 85%
    20:00 +17°C° 0 mm 2 m/S 757 mmHg 87%
    21:00 +16°C° 0.1 mm 2 m/S 757 mmHg 89%
    22:00 +16°C° 0.1 mm 2 m/S 757 mmHg 91%
    23:00 +14°C° 0.1 mm 3 m/S 757 mmHg 93%

    22 August, Donnerstag

    Zeit Temperatur Niederschläge Wind Luftdruck Luftfeuchtigkeit
    00:00 +15°C° 0.4 mm 2 m/S 757 mmHg 94%
    01:00 +15°C° 0.4 mm 2 m/S 758 mmHg 95%
    02:00 +15°C° 0.4 mm 2 m/S 758 mmHg 96%
    03:00 +14°C° 0.1 mm 1 m/S 758 mmHg 96%
    04:00 +14°C° 0.1 mm 1 m/S 758 mmHg 96%
    05:00 +13°C° 0.1 mm 1 m/S 758 mmHg 96%
    06:00 +14°C° 0 mm 1 m/S 758 mmHg 93%
    07:00 +15°C° 0 mm 1 m/S 758 mmHg 91%
    08:00 +16°C° 0 mm 2 m/S 759 mmHg 89%
    09:00 +17°C° 0 mm 2 m/S 759 mmHg 79%
    10:00 +19°C° 0 mm 2 m/S 759 mmHg 70%
    11:00 +21°C° 0 mm 2 m/S 759 mmHg 60%
    12:00 +21°C° 0 mm 3 m/S 759 mmHg 55%
    13:00 +22°C° 0 mm 3 m/S 759 mmHg 51%
    14:00 +22°C° 0 mm 3 m/S 759 mmHg 46%
    15:00 +23°C° 0 mm 2 m/S 759 mmHg 49%
    16:00 +21°C° 0 mm 2 m/S 759 mmHg 51%
    17:00 +21°C° 0 mm 2 m/S 759 mmHg 54%
    18:00 +20°C° 0 mm 1 m/S 759 mmHg 60%
    19:00 +18°C° 0 mm 1 m/S 759 mmHg 67%
    20:00 +13°C° 0 mm 0 m/S 759 mmHg 74%
    21:00 +14°C° 0 mm 1 m/S 759 mmHg 76%
    22:00 +14°C° 0 mm 1 m/S 760 mmHg 78%
    23:00 +13°C° 0 mm 1 m/S 760 mmHg 80%

    23 August, Freitag

    Zeit Temperatur Niederschläge Wind Luftdruck Luftfeuchtigkeit
    00:00 +13°C° 0 mm 1 m/S 760 mmHg 83%
    01:00 +12°C° 0 mm 1 m/S 760 mmHg 87%
    02:00 +12°C° 0 mm 1 m/S 760 mmHg 90%
    03:00 +11°C° 0 mm 1 m/S 760 mmHg 90%
    04:00 +11°C° 0 mm 1 m/S 760 mmHg 90%
    05:00 +11°C° 0 mm 1 m/S 760 mmHg 91%
    06:00 +13°C° 0 mm 1 m/S 760 mmHg 84%
    07:00 +14°C° 0 mm 1 m/S 761 mmHg 77%
    08:00 +16°C° 0 mm 1 m/S 761 mmHg 70%
    09:00 +17°C° 0 mm 2 m/S 761 mmHg 66%
    10:00 +19°C° 0 mm 2 m/S 761 mmHg 61%
    11:00 +20°C° 0 mm 2 m/S 761 mmHg 57%
    12:00 +21°C° 0 mm 2 m/S 760 mmHg 55%
    13:00 +21°C° 0 mm 2 m/S 760 mmHg 53%
    14:00 +22°C° 0 mm 3 m/S 760 mmHg 51%
    15:00 +23°C° 0 mm 2 m/S 760 mmHg 53%
    16:00 +23°C° 0 mm 2 m/S 760 mmHg 56%
    17:00 +22°C° 0 mm 1 m/S 760 mmHg 58%
    18:00 +20°C° 0 mm 1 m/S 760 mmHg 65%
    19:00 +18°C° 0 mm 1 m/S 760 mmHg 72%
    20:00 +15°C° 0 mm 1 m/S 760 mmHg 79%
    21:00 +15°C° 0 mm 1 m/S 760 mmHg 83%
    22:00 +14°C° 0 mm 1 m/S 760 mmHg 86%
    23:00 +13°C° 0 mm 1 m/S 760 mmHg 89%

    24 August, Samstag

    Zeit Temperatur Niederschläge Wind Luftdruck Luftfeuchtigkeit
    00:00 +13°C° 0 mm 1 m/S 761 mmHg 91%
    01:00 +13°C° 0 mm 1 m/S 761 mmHg 92%
    02:00 +12°C° 0 mm 1 m/S 761 mmHg 94%
    03:00 +12°C° 0 mm 1 m/S 761 mmHg 95%
    04:00 +12°C° 0 mm 1 m/S 761 mmHg 95%
    05:00 +12°C° 0 mm 2 m/S 761 mmHg 96%
    06:00 +14°C° 0 mm 2 m/S 761 mmHg 89%
    07:00 +15°C° 0 mm 2 m/S 761 mmHg 83%
    08:00 +17°C° 0 mm 2 m/S 761 mmHg 77%
    09:00 +18°C° 0 mm 2 m/S 761 mmHg 73%
    10:00 +19°C° 0 mm 2 m/S 761 mmHg 70%
    11:00 +20°C° 0 mm 2 m/S 761 mmHg 66%
    12:00 +21°C° 0 mm 2 m/S 761 mmHg 61%
    13:00 +22°C° 0 mm 3 m/S 761 mmHg 56%
    14:00 +24°C° 0 mm 3 m/S 760 mmHg 51%
    15:00 +24°C° 0 mm 2 m/S 760 mmHg 54%
    16:00 +24°C° 0 mm 2 m/S 760 mmHg 57%
    17:00 +24°C° 0 mm 2 m/S 760 mmHg 61%
    18:00 +21°C° 0 mm 2 m/S 760 mmHg 66%
    19:00 +19°C° 0 mm 2 m/S 760 mmHg 71%
    20:00 +17°C° 0 mm 2 m/S 760 mmHg 77%
    21:00 +17°C° 0 mm 2 m/S 760 mmHg 78%
    22:00 +16°C° 0 mm 2 m/S 760 mmHg 80%
    23:00 +15°C° 0 mm 2 m/S 760 mmHg 81%
    Mehr zeigen